Location: Newark
(36.1358°N, 115.1208°W)
Time: 01:12:18
(UTC+00:00)

XW-2C - Visible Passes

Search period start: 03 April 2020 00:00
Search period end: 13 April 2020 00:00
Orbit: 509 x 527 km, 97.5° (Epoch: 02 April)

Date Brightness Start Highest point End Pass type
(mag) Time Alt. Az. Time Alt. Az. Time Alt. Az.
03 Apr ? 12:55:28 10° NE 12:58:37 24° E 13:01:43 10° SSE visible
04 Apr ? 12:41:59 10° NE 12:44:23 16° E 12:46:47 10° SE visible
05 Apr ? 12:29:25 10° E 12:30:09 10° E 12:30:52 10° ESE visible
11 Apr ? 12:37:26 10° ENE 12:39:26 14° E 12:41:25 10° SE visible
